Weather History for MMMZ - May, 2013

Change the Weather History Date:

Monday, May 27, 2013

  Actual Average Record
Temperature  
Mean Temperature 78 °F -  
Max Temperature 87 °F 86 °F 93 °F (1997)
Min Temperature 69 °F 66 °F 59 °F (2015)
Cooling Degree Days 13    
Growing Degree Days 28 (Base 50)    
Moisture  
Dew Point 64 °F    
Average Humidity 63    
Maximum Humidity 85    
Minimum Humidity 43    
Precipitation  
Precipitation 0.00 in - - ()
Sea Level Pressure  
Sea Level Pressure 29.83 in    
Wind  
Wind Speed 6 mph ()    
Max Wind Speed 17 mph    
Max Gust Speed -    
Visibility 8.5 miles    
Events      
Averages and records for this station are not official NWS values.
T = Trace of Precipitation, MM = Missing Value Source: Averaged Metar Reports

Daily Weather History Graph

Daily Weather History Graph

Search for Another Location

Airport or City:

Trip Planner

Search our weather history database for the weather conditions in past years. The results will help you decide how hot, cold, wet, or windy it might be!

Date:

Astronomy

May. 27, 2013 Rise Set
Actual Time 6:19 AM MDT 7:44 PM MDT
Civil Twilight 5:54 AM MDT 8:09 PM MDT
Nautical Twilight 5:25 AM MDT 8:39 PM MDT
Astronomical Twilight 4:54 AM MDT 9:10 PM MDT
Moon 10:34 PM MDT (5/27) 8:55 AM MDT (5/27)
Length of Visible Light 14h 14m
Length of Day
13h 25m
Waning Gibbous, 90% of the Moon is Illuminated
May 27
Waning Gibbous
May 31
Last Quarter
Jun 8
New
Jun 16
First Quarter
Jun 23
Full

Hourly Weather History & Observations

Time (MDT) Temp. Heat Index Dew Point Humidity Pressure Visibility Wind Dir Wind Speed Gust Speed Precip Events Conditions
12:00 AM 78 °F - 73 °F 81% 29.86 in - West 4.5 mph - -  
12:41 AM 69.8 °F - 60.8 °F 73% 29.85 in 8.0 mi East 5.8 mph - N/A   Scattered Clouds
1:43 AM 69.8 °F - 60.8 °F 73% 29.85 in 10.0 mi ESE 6.9 mph - N/A   Scattered Clouds
2:42 AM 71.6 °F - 60.8 °F 69% 29.83 in 8.0 mi ESE 5.8 mph - N/A   Scattered Clouds
3:00 AM 77 °F - 72 °F 81% 29.84 in - WSW 2.2 mph - -  
3:40 AM 71.6 °F - 60.8 °F 69% 29.84 in 8.0 mi East 5.8 mph - N/A   Mostly Cloudy
4:40 AM 71.6 °F - 60.8 °F 69% 29.85 in 8.0 mi East 6.9 mph - N/A   Mostly Cloudy
5:47 AM 69.8 °F - 60.8 °F 73% 29.86 in 8.0 mi Calm Calm - N/A   Scattered Clouds
6:00 AM 76 °F - 72 °F 85% 29.87 in - ENE 2.2 mph - -  
6:40 AM 69.8 °F - 60.8 °F 73% 29.86 in 4.0 mi NNE 5.8 mph - N/A   Scattered Clouds
7:41 AM 71.6 °F - 62.6 °F 73% 29.88 in 6.0 mi ENE 5.8 mph - N/A   Scattered Clouds
8:43 AM 77.0 °F - 64.4 °F 65% 29.89 in 8.0 mi East 5.8 mph - N/A   Scattered Clouds
9:00 AM 83 °F - 73 °F 64% 29.90 in - East 4.5 mph - -  
9:45 AM 80.6 °F 82.3 °F 64.4 °F 58% 29.88 in 8.0 mi ENE 6.9 mph - N/A   Partly Cloudy
10:40 AM 82.4 °F 83.9 °F 64.4 °F 54% 29.87 in 8.0 mi SSW 6.9 mph - N/A   Clear
11:40 AM 84.2 °F 85.6 °F 64.4 °F 51% 29.87 in 10.0 mi South 9.2 mph - N/A   Clear
12:00 PM 86 °F - 72 °F 55% 29.88 in - South 6.7 mph - -  
12:41 PM 87.8 °F 88.5 °F 62.6 °F 43% 29.84 in 10.0 mi SW 9.2 mph - N/A   Clear
1:41 PM 87.8 °F 88.5 °F 62.6 °F 43% 29.81 in 10.0 mi SSW 10.4 mph - N/A   Clear
2:43 PM 86.0 °F 86.6 °F 62.6 °F 45% 29.79 in 10.0 mi SSW 13.8 mph - N/A   Clear
3:43 PM 84.2 °F 85.0 °F 62.6 °F 48% 29.78 in 10.0 mi SW 17.3 mph - N/A   Clear
4:42 PM 82.4 °F 83.4 °F 62.6 °F 51% 29.76 in 10.0 mi SW 10.4 mph - N/A   Partly Cloudy
5:47 PM 80.6 °F 81.8 °F 62.6 °F 54% 29.77 in 10.0 mi West 12.7 mph - N/A   Partly Cloudy
6:42 PM 80.6 °F 81.8 °F 62.6 °F 54% 29.75 in 10.0 mi WSW 10.4 mph - N/A   Partly Cloudy
7:43 PM 78.8 °F - 62.6 °F 57% 29.76 in 8.0 mi SW 9.2 mph - N/A   Clear
8:43 PM 75.2 °F - 62.6 °F 65% 29.77 in 8.0 mi WSW 8.1 mph - N/A   Clear
9:40 PM 73.4 °F - 62.6 °F 69% 29.80 in 8.0 mi SSW 6.9 mph - N/A   Clear
10:42 PM 73.4 °F - 62.6 °F 69% 29.81 in 8.0 mi South 6.9 mph - N/A   Clear
11:44 PM 71.6 °F - 62.6 °F 73% 29.85 in 8.0 mi Calm Calm - N/A   Clear